No;Time;Interval(mi);Indoor Humidity(%);Indoor Temperature(�C);Outdoor Humidity(%);Outdoor Temperature(�C);Absolute Pressure(Hpa);Wind(m/s);Gust(m/s);Direction;Relative Pressure(Hpa);Dewpoint(�C);Windchill(�C);Total Rainfall(mm)
1;2016-10-01 00:00:01;10;56;24.1;96;13.5;1006.4;0.0;0.0;W;1009.6;12.9;13.5;2398.2;
2;2016-10-01 00:10:01;10;57;24.0;96;13.6;1006.4;0.0;0.0;W;1009.6;13.0;13.6;2398.5;
3;2016-10-01 00:20:01;10;57;24.0;97;13.7;1006.0;0.0;0.0;W;1009.2;13.2;13.7;2398.5;
4;2016-10-01 00:30:01;10;57;24.0;97;13.7;1005.7;0.0;0.0;SW;1008.9;13.2;13.7;2398.5;
5;2016-10-01 00:40:01;10;57;24.0;97;13.7;1006.1;0.0;0.0;W;1009.3;13.2;13.7;2398.5;
6;2016-10-01 00:50:01;10;57;24.0;98;13.6;1006.3;0.0;0.0;W;1009.5;13.3;13.6;2398.5;
7;2016-10-01 01:00:01;10;57;24.0;98;13.7;1006.2;0.0;0.0;W;1009.4;13.4;13.7;2398.5;
8;2016-10-01 01:10:01;10;57;24.0;98;13.6;1005.9;0.0;0.0;W;1009.1;13.3;13.6;2398.5;
9;2016-10-01 01:20:01;10;58;23.9;98;13.6;1005.7;0.0;0.0;W;1008.9;13.3;13.6;2398.5;
10;2016-10-01 01:30:01;10;57;24.0;98;13.6;1005.5;0.0;0.0;W;1008.7;13.3;13.6;2398.5;
11;2016-10-01 01:40:01;10;57;24.0;98;13.6;1005.4;0.0;0.0;W;1008.6;13.3;13.6;2398.5;
12;2016-10-01 01:50:01;10;57;24.0;98;13.6;1005.4;0.0;0.0;W;1008.6;13.3;13.6;2398.5;
13;2016-10-01 02:00:01;10;57;24.0;99;13.7;1005.0;0.0;0.0;W;1008.2;13.5;13.7;2398.5;
14;2016-10-01 02:10:01;10;57;24.0;99;13.9;1005.0;0.0;0.0;NW;1008.2;13.7;13.9;2398.5;
15;2016-10-01 02:20:01;10;57;24.1;98;14.0;1004.9;0.0;0.0;NW;1008.1;13.7;14.0;2398.5;
16;2016-10-01 02:30:01;10;57;24.1;98;14.1;1004.9;0.0;0.0;SE;1008.1;13.8;14.1;2398.5;
17;2016-10-01 02:40:01;10;57;24.1;99;14.2;1004.9;0.0;0.0;SW;1008.1;14.0;14.2;2398.5;
18;2016-10-01 02:50:01;10;57;24.0;99;14.3;1004.8;0.0;0.0;SW;1008.0;14.1;14.3;2398.5;
19;2016-10-01 03:00:01;10;57;24.0;99;14.3;1004.7;0.0;0.0;SW;1007.9;14.1;14.3;2398.5;
20;2016-10-01 03:10:01;10;57;24.0;99;14.3;1004.7;0.0;0.0;S;1007.9;14.1;14.3;2398.5;
21;2016-10-01 03:20:01;10;57;24.0;99;14.4;1004.6;0.0;0.0;S;1007.8;14.2;14.4;2398.5;
22;2016-10-01 03:30:01;10;57;24.0;99;14.4;1004.4;0.0;0.0;W;1007.6;14.2;14.4;2398.5;
23;2016-10-01 03:40:01;10;58;23.9;99;14.3;1004.4;0.0;0.0;S;1007.6;14.1;14.3;2398.5;
24;2016-10-01 03:50:01;10;58;23.9;99;14.3;1004.3;0.0;0.0;SW;1007.5;14.1;14.3;2398.5;
25;2016-10-01 04:00:01;10;58;23.9;99;14.3;1004.3;0.0;0.0;SW;1007.5;14.1;14.3;2398.5;
26;2016-10-01 04:10:01;10;58;23.9;99;14.3;1004.3;0.0;0.0;S;1007.5;14.1;14.3;2398.5;
27;2016-10-01 04:20:01;10;58;23.9;99;14.2;1004.2;0.0;0.0;SW;1007.4;14.0;14.2;2398.5;
28;2016-10-01 04:30:01;10;58;23.8;99;13.9;1004.2;0.0;0.0;SW;1007.4;13.7;13.9;2398.5;
29;2016-10-01 04:40:01;10;58;23.8;99;13.5;1004.1;0.0;0.0;SW;1007.3;13.3;13.5;2398.8;
30;2016-10-01 04:50:01;10;58;23.8;99;13.3;1004.1;0.0;0.0;SW;1007.3;13.1;13.3;2398.8;
31;2016-10-01 05:00:01;10;57;23.8;99;13.2;1004.1;0.0;0.0;SW;1007.3;13.0;13.2;2398.8;
32;2016-10-01 05:10:01;10;57;23.8;97;12.9;1004.1;0.0;0.0;SW;1007.3;12.4;12.9;2398.8;
33;2016-10-01 05:20:01;10;57;23.8;97;12.7;1004.2;0.0;0.0;SW;1007.4;12.2;12.7;2398.8;
34;2016-10-01 05:30:01;10;57;23.8;97;12.6;1004.2;0.0;0.0;SW;1007.4;12.1;12.6;2398.8;
35;2016-10-01 05:40:01;10;57;23.8;97;12.6;1004.4;0.0;0.0;SW;1007.6;12.1;12.6;2398.8;
36;2016-10-01 05:50:01;10;57;23.8;97;12.9;1004.5;0.0;0.0;SW;1007.7;12.4;12.9;2398.8;
37;2016-10-01 06:00:01;10;57;23.7;97;12.9;1004.3;0.0;0.0;S;1007.5;12.4;12.9;2398.8;
38;2016-10-01 06:10:01;10;57;23.7;97;12.8;1004.4;0.0;0.0;S;1007.6;12.3;12.8;2398.8;
39;2016-10-01 06:20:01;10;57;23.7;97;12.6;1004.5;0.0;0.0;S;1007.7;12.1;12.6;2398.8;
40;2016-10-01 06:30:01;10;57;23.7;97;12.7;1004.6;0.0;0.0;SW;1007.8;12.2;12.7;2398.8;
41;2016-10-01 06:40:01;10;57;23.7;97;12.7;1004.6;0.0;0.0;S;1007.8;12.2;12.7;2398.8;
42;2016-10-01 06:50:01;10;57;23.7;97;12.9;1004.8;0.0;0.7;W;1008.0;12.4;12.9;2398.8;
43;2016-10-01 07:00:01;10;57;23.7;99;13.0;1004.7;0.0;0.0;N;1007.9;12.8;13.0;2398.8;
44;2016-10-01 07:10:01;10;57;23.7;97;12.9;1004.8;0.0;0.3;W;1008.0;12.4;12.9;2398.8;
45;2016-10-01 07:20:01;10;57;23.7;97;12.9;1004.7;0.0;0.0;NE;1007.9;12.4;12.9;2398.8;
46;2016-10-01 07:30:01;10;56;23.6;99;13.0;1004.8;0.0;0.0;NW;1008.0;12.8;13.0;2398.8;
47;2016-10-01 07:40:01;10;56;23.4;99;13.3;1004.7;0.0;0.0;SW;1007.9;13.1;13.3;2398.8;
48;2016-10-01 07:50:01;10;57;23.4;99;13.3;1004.8;0.0;0.0;S;1008.0;13.1;13.3;2398.8;
49;2016-10-01 08:00:01;10;57;23.5;99;13.6;1005.0;0.3;1.0;W;1008.2;13.4;13.6;2398.8;
50;2016-10-01 08:10:01;10;57;23.5;98;13.8;1004.9;0.0;0.0;N;1008.1;13.5;13.8;2398.8;
51;2016-10-01 08:20:01;10;58;23.5;96;14.3;1004.8;0.0;0.0;SE;1008.0;13.7;14.3;2398.8;
52;2016-10-01 08:30:01;10;58;23.5;95;14.7;1005.0;0.0;0.3;E;1008.2;13.9;14.7;2398.8;
53;2016-10-01 08:40:01;10;59;23.5;94;15.8;1005.1;0.0;0.0;S;1008.3;14.8;15.8;2398.8;
54;2016-10-01 08:50:01;10;57;23.5;86;16.7;1005.1;0.0;0.0;ESE;1008.3;14.3;16.7;2398.8;
55;2016-10-01 09:00:01;10;55;23.3;82;18.2;1005.0;0.0;0.7;NE;1008.2;15.1;18.2;2398.8;
56;2016-10-01 09:10:01;10;55;23.1;75;18.9;1005.1;0.7;1.4;S;1008.3;14.4;18.9;2398.8;
57;2016-10-01 09:20:01;10;56;23.1;69;19.8;1005.0;0.0;0.7;S;1008.2;13.9;19.8;2398.8;
58;2016-10-01 09:30:01;10;57;23.2;66;20.4;1005.1;0.3;0.7;S;1008.3;13.8;20.4;2398.8;
59;2016-10-01 09:40:01;10;58;23.3;63;20.6;1005.2;0.3;1.0;S;1008.4;13.3;20.6;2398.8;
60;2016-10-01 09:50:01;10;58;23.3;63;20.6;1005.3;1.4;2.0;S;1008.5;13.3;20.6;2398.8;
61;2016-10-01 10:00:01;10;58;23.4;65;19.8;1005.4;0.7;1.7;W;1008.6;13.0;19.8;2398.8;
62;2016-10-01 10:10:01;10;58;23.4;69;18.3;1005.5;1.4;2.4;SE;1008.7;12.5;18.3;2398.8;
63;2016-10-01 10:20:01;10;59;23.4;72;18.0;1005.5;1.0;1.4;S;1008.7;12.9;18.0;2398.8;
64;2016-10-01 10:30:01;10;59;23.4;71;18.0;1005.5;1.4;2.0;S;1008.7;12.7;18.0;2398.8;
65;2016-10-01 10:40:01;10;59;23.5;72;17.5;1005.5;1.7;3.4;SW;1008.7;12.4;17.5;2398.8;
66;2016-10-01 10:50:01;10;58;23.5;74;17.3;1005.5;0.3;1.0;SW;1008.7;12.6;17.3;2398.8;
67;2016-10-01 11:00:01;10;60;23.4;74;17.4;1005.4;1.7;2.4;SW;1008.6;12.7;17.4;2398.8;
68;2016-10-01 11:10:01;10;64;23.5;70;19.2;1005.4;1.4;2.0;W;1008.6;13.6;19.2;2398.8;
69;2016-10-01 11:20:01;10;62;23.5;67;19.3;1005.4;1.0;2.0;E;1008.6;13.0;19.3;2398.8;
70;2016-10-01 11:30:01;10;62;23.5;65;20.0;1005.4;2.0;3.7;W;1008.6;13.2;20.0;2398.8;
71;2016-10-01 11:40:01;10;62;23.5;64;20.0;1005.4;2.4;3.7;SSW;1008.6;13.0;20.0;2398.8;
72;2016-10-01 11:50:01;10;62;23.5;68;18.8;1005.4;1.4;2.7;W;1008.6;12.8;18.8;2398.8;
73;2016-10-01 12:00:01;10;62;23.6;68;18.8;1005.1;0.7;2.0;SW;1008.3;12.8;18.8;2398.8;
74;2016-10-01 12:10:01;10;62;23.6;68;18.4;1005.2;0.7;1.0;W;1008.4;12.4;18.4;2398.8;
75;2016-10-01 12:20:01;10;62;23.6;66;19.2;1005.0;0.7;1.7;NW;1008.2;12.7;19.2;2398.8;
76;2016-10-01 12:30:01;10;62;23.6;59;20.6;1004.8;0.3;0.7;S;1008.0;12.3;20.6;2398.8;
77;2016-10-01 12:40:01;10;62;23.6;54;21.5;1004.9;1.4;2.7;SE;1008.1;11.8;21.5;2398.8;
78;2016-10-01 12:50:01;10;60;23.6;56;20.9;1004.7;1.0;1.7;S;1007.9;11.8;20.9;2398.8;
79;2016-10-01 13:00:01;10;59;23.6;51;22.1;1004.5;2.7;4.4;SW;1007.7;11.5;22.1;2398.8;
80;2016-10-01 13:10:01;10;59;23.6;52;21.6;1004.5;0.7;1.7;SW;1007.7;11.3;21.6;2398.8;
81;2016-10-01 13:20:01;10;59;23.6;53;21.6;1004.4;1.4;3.1;S;1007.6;11.6;21.6;2398.8;
82;2016-10-01 13:30:01;10;58;23.6;52;22.0;1004.4;1.0;2.0;NW;1007.6;11.7;22.0;2398.8;
83;2016-10-01 13:40:01;10;56;23.6;55;20.4;1004.4;0.7;1.4;SW;1007.6;11.1;20.4;2398.8;
84;2016-10-01 13:50:01;10;55;23.6;54;20.8;1004.4;1.0;2.4;S;1007.6;11.1;20.8;2398.8;
85;2016-10-01 14:00:01;10;55;23.6;55;20.6;1004.4;1.7;3.1;W;1007.6;11.2;20.6;2398.8;
86;2016-10-01 14:10:00;10;54;23.6;59;19.7;1004.2;1.7;2.7;SW;1007.4;11.5;19.7;2398.8;
87;2016-10-01 14:20:00;10;55;23.6;61;19.6;1004.3;1.0;2.0;S;1007.5;11.9;19.6;2398.8;
88;2016-10-01 14:30:01;10;55;23.6;59;20.0;1004.4;1.4;3.1;SW;1007.6;11.7;20.0;2398.8;
89;2016-10-01 14:40:01;10;55;23.7;56;19.9;1004.2;0.7;3.1;S;1007.4;10.9;19.9;2398.8;
90;2016-10-01 14:50:01;10;55;23.6;55;19.5;1004.3;1.0;2.0;SW;1007.5;10.2;19.5;2398.8;
91;2016-10-01 15:00:01;10;56;23.6;56;19.3;1004.2;0.3;1.4;S;1007.4;10.3;19.3;2398.8;
92;2016-10-01 15:10:01;10;56;23.6;55;19.4;1004.2;1.7;2.7;S;1007.4;10.1;19.4;2398.8;
93;2016-10-01 15:20:01;10;56;23.6;55;19.1;1004.1;1.7;3.1;SW;1007.3;9.8;19.1;2398.8;
94;2016-10-01 15:30:01;10;57;23.6;57;18.7;1004.3;1.0;2.0;E;1007.5;10.0;18.7;2398.8;
95;2016-10-01 15:40:01;10;57;23.7;57;18.6;1004.2;1.0;2.7;SW;1007.4;9.9;18.6;2398.8;
96;2016-10-01 15:50:01;10;57;23.7;58;18.5;1004.2;1.0;2.4;S;1007.4;10.1;18.5;2398.8;
97;2016-10-01 16:00:01;10;57;23.7;58;18.2;1004.4;1.0;3.1;SE;1007.6;9.8;18.2;2398.8;
98;2016-10-01 16:10:01;10;56;23.7;59;18.1;1004.6;1.0;2.0;S;1007.8;10.0;18.1;2398.8;
99;2016-10-01 16:20:01;10;56;23.7;59;17.9;1004.8;1.7;2.7;S;1008.0;9.8;17.9;2398.8;
100;2016-10-01 16:30:01;10;56;23.7;61;17.7;1004.7;0.3;1.4;SW;1007.9;10.1;17.7;2398.8;
101;2016-10-01 16:40:01;10;55;23.7;61;17.6;1004.8;1.7;2.7;SW;1008.0;10.0;17.6;2398.8;
102;2016-10-01 16:50:01;10;55;23.7;63;17.4;1004.8;1.7;2.4;SW;1008.0;10.3;17.4;2398.8;
103;2016-10-01 17:00:01;10;55;23.7;65;17.2;1004.8;0.3;1.0;W;1008.0;10.6;17.2;2398.8;
104;2016-10-01 17:10:01;10;55;23.7;67;17.1;1004.9;1.4;1.7;W;1008.1;10.9;17.1;2398.8;
105;2016-10-01 17:20:01;10;55;23.7;69;16.8;1004.9;0.7;1.0;W;1008.1;11.1;16.8;2398.8;
106;2016-10-01 17:30:01;10;55;23.6;68;16.5;1005.1;1.0;1.7;S;1008.3;10.6;16.5;2398.8;
107;2016-10-01 17:40:01;10;55;23.6;70;16.3;1005.0;0.3;1.0;S;1008.2;10.8;16.3;2398.8;
108;2016-10-01 17:50:01;10;55;23.6;72;16.1;1005.3;1.0;1.7;ESE;1008.5;11.0;16.1;2398.8;
109;2016-10-01 18:00:01;10;55;23.6;74;15.9;1005.2;0.3;1.0;NW;1008.4;11.3;15.9;2398.8;
110;2016-10-01 18:10:01;10;55;23.6;75;15.7;1005.3;1.0;2.4;NE;1008.5;11.3;15.7;2398.8;
111;2016-10-01 18:20:01;10;55;23.6;75;15.6;1005.5;1.0;2.0;SW;1008.7;11.2;15.6;2398.8;
112;2016-10-01 18:30:01;10;55;23.6;76;15.4;1005.5;1.7;2.7;S;1008.7;11.2;15.4;2398.8;
113;2016-10-01 18:40:01;10;55;23.6;77;15.2;1005.5;0.7;1.7;S;1008.7;11.2;15.2;2398.8;
114;2016-10-01 18:50:01;10;55;23.6;78;15.0;1005.6;0.3;0.7;NW;1008.8;11.2;15.0;2398.8;
115;2016-10-01 19:00:01;10;54;23.6;80;14.8;1005.7;1.0;1.7;S;1008.9;11.4;14.8;2398.8;
116;2016-10-01 19:10:01;10;55;23.6;79;14.6;1005.8;0.7;1.4;S;1009.0;11.0;14.6;2398.8;
117;2016-10-01 19:20:01;10;58;23.6;81;14.5;1005.9;0.7;1.4;W;1009.1;11.3;14.5;2398.8;
118;2016-10-01 19:30:01;10;59;23.6;81;14.3;1006.0;0.7;1.4;W;1009.2;11.1;14.3;2398.8;
119;2016-10-01 19:40:01;10;60;23.6;83;14.2;1006.1;0.3;1.0;W;1009.3;11.4;14.2;2398.8;
120;2016-10-01 19:50:01;10;60;23.7;84;14.3;1006.2;0.3;1.0;SW;1009.4;11.6;14.3;2398.8;
121;2016-10-01 20:00:01;10;56;23.6;84;14.2;1006.2;0.3;0.7;S;1009.4;11.5;14.2;2398.8;
122;2016-10-01 20:10:01;10;57;23.6;84;14.2;1006.3;1.0;1.4;W;1009.5;11.5;14.2;2398.8;
123;2016-10-01 20:20:01;10;57;23.7;84;14.2;1006.4;0.7;1.0;S;1009.6;11.5;14.2;2398.8;
124;2016-10-01 20:30:01;10;57;23.7;85;14.3;1006.3;0.3;0.7;ESE;1009.5;11.8;14.3;2398.8;
125;2016-10-01 20:40:01;10;58;23.8;85;14.3;1006.5;0.7;1.0;SW;1009.7;11.8;14.3;2398.8;
126;2016-10-01 20:50:01;10;58;23.8;85;14.3;1006.3;0.3;1.0;W;1009.5;11.8;14.3;2398.8;
127;2016-10-01 21:00:01;10;58;23.8;85;14.1;1006.6;0.3;1.4;SW;1009.8;11.6;14.1;2398.8;
128;2016-10-01 21:10:01;10;58;23.9;87;13.8;1006.7;0.0;0.0;SW;1009.9;11.7;13.8;2398.8;
129;2016-10-01 21:20:01;10;57;23.9;87;13.6;1006.6;0.7;1.0;S;1009.8;11.5;13.6;2398.8;
130;2016-10-01 21:30:01;10;55;23.9;88;13.4;1006.8;0.0;0.7;N;1010.0;11.5;13.4;2398.8;
131;2016-10-01 21:40:01;10;54;23.7;88;13.1;1006.9;0.3;1.0;S;1010.1;11.2;13.1;2398.8;
132;2016-10-01 21:50:01;10;55;23.7;89;13.0;1006.8;0.0;1.0;S;1010.0;11.2;13.0;2398.8;
133;2016-10-01 22:00:01;10;55;23.7;90;12.9;1006.8;0.7;1.4;S;1010.0;11.3;12.9;2398.8;
134;2016-10-01 22:10:01;10;55;23.7;89;13.0;1007.0;1.0;1.7;SE;1010.2;11.2;13.0;2398.8;
135;2016-10-01 22:20:01;10;55;23.7;89;12.9;1007.0;0.0;0.3;SW;1010.2;11.1;12.9;2398.8;
136;2016-10-01 22:30:01;10;55;23.7;88;12.8;1007.2;0.3;1.7;S;1010.4;10.9;12.8;2398.8;
137;2016-10-01 22:40:01;10;55;23.7;88;12.6;1007.2;0.3;0.7;S;1010.4;10.7;12.6;2398.8;
138;2016-10-01 22:50:01;10;55;23.7;87;12.4;1007.2;0.7;1.0;SW;1010.4;10.3;12.4;2398.8;
139;2016-10-01 23:00:01;10;55;23.7;86;12.4;1007.2;0.0;0.7;SW;1010.4;10.1;12.4;2398.8;
140;2016-10-01 23:10:01;10;55;23.6;85;12.4;1007.3;0.3;0.7;SW;1010.5;9.9;12.4;2398.8;
141;2016-10-01 23:20:01;10;55;23.6;85;12.4;1007.3;1.0;2.0;SE;1010.5;9.9;12.4;2398.8;
142;2016-10-01 23:30:01;10;55;23.6;84;12.3;1007.4;0.3;1.0;NW;1010.6;9.7;12.3;2398.8;
143;2016-10-01 23:40:01;10;55;23.6;83;12.2;1007.3;0.3;1.0;N;1010.5;9.4;12.2;2398.8;
144;2016-10-01 23:50:01;10;55;23.5;83;12.1;1007.4;0.0;0.7;E;1010.6;9.3;12.1;2398.8;
145;2016-10-02 00:00:01;10;53;23.5;84;11.7;1007.5;0.0;0.3;SW;1010.7;9.1;11.7;2398.8;
146;2016-10-02 00:10:01;10;54;23.4;84;11.5;1007.7;0.0;1.0;W;1010.9;8.9;11.5;2398.8;
147;2016-10-02 00:20:01;10;54;23.4;84;11.5;1007.7;0.0;0.3;SW;1010.9;8.9;11.5;2398.8;
148;2016-10-02 00:30:01;10;54;23.4;84;11.5;1007.7;0.0;0.0;SW;1010.9;8.9;11.5;2398.8;
149;2016-10-02 00:40:01;10;54;23.4;83;11.5;1007.7;0.3;0.7;W;1010.9;8.7;11.5;2398.8;
150;2016-10-02 00:50:01;10;54;23.4;83;11.5;1007.6;0.0;0.7;SW;1010.8;8.7;11.5;2398.8;
151;2016-10-02 01:00:01;10;54;23.4;83;11.3;1007.6;0.0;0.7;W;1010.8;8.5;11.3;2398.8;
152;2016-10-02 01:10:01;10;54;23.4;83;11.3;1007.7;0.0;0.7;S;1010.9;8.5;11.3;2398.8;
153;2016-10-02 01:20:01;10;53;23.4;83;11.2;1007.6;0.3;0.7;S;1010.8;8.4;11.2;2398.8;
154;2016-10-02 01:30:01;10;53;23.4;82;11.2;1007.6;0.3;0.7;S;1010.8;8.2;11.2;2398.8;
155;2016-10-02 01:40:01;10;53;23.3;82;11.2;1007.6;0.3;0.7;SW;1010.8;8.2;11.2;2398.8;
156;2016-10-02 01:50:01;10;53;23.3;81;11.2;1007.5;0.3;0.7;SW;1010.7;8.1;11.2;2398.8;
157;2016-10-02 02:00:01;10;53;23.3;81;11.3;1007.5;1.0;1.7;WSW;1010.7;8.2;11.3;2398.8;
158;2016-10-02 02:10:01;10;53;23.3;81;11.3;1007.4;1.4;2.0;SE;1010.6;8.2;11.3;2398.8;
159;2016-10-02 02:20:01;10;53;23.3;81;11.2;1007.5;0.3;1.0;W;1010.7;8.1;11.2;2398.8;
160;2016-10-02 02:30:01;10;53;23.3;82;11.2;1007.6;0.3;1.0;S;1010.8;8.2;11.2;2398.8;
161;2016-10-02 02:40:01;10;53;23.2;83;11.1;1007.5;0.3;0.7;S;1010.7;8.3;11.1;2398.8;
162;2016-10-02 02:50:01;10;53;23.2;83;11.1;1007.5;0.7;2.0;SE;1010.7;8.3;11.1;2398.8;
163;2016-10-02 03:00:01;10;53;23.2;83;11.1;1007.6;0.0;0.7;SW;1010.8;8.3;11.1;2398.8;
164;2016-10-02 03:10:01;10;53;23.2;84;10.9;1007.6;0.7;1.4;SW;1010.8;8.3;10.9;2398.8;
165;2016-10-02 03:20:01;10;53;23.2;85;10.9;1007.6;0.0;0.3;S;1010.8;8.5;10.9;2398.8;
166;2016-10-02 03:30:01;10;53;23.1;85;10.9;1007.6;0.7;1.7;SW;1010.8;8.5;10.9;2398.8;
167;2016-10-02 03:40:01;10;52;23.1;85;10.9;1007.6;0.7;1.4;S;1010.8;8.5;10.9;2398.8;
168;2016-10-02 03:50:01;10;52;23.1;85;10.9;1007.7;0.7;1.4;SE;1010.9;8.5;10.9;2398.8;
169;2016-10-02 04:00:01;10;52;23.1;85;10.8;1007.7;0.7;1.4;SW;1010.9;8.4;10.8;2398.8;
170;2016-10-02 04:10:01;10;52;23.1;85;10.7;1007.8;0.3;1.0;SW;1011.0;8.3;10.7;2398.8;
171;2016-10-02 04:20:01;10;52;23.1;86;10.6;1007.7;0.3;0.7;W;1010.9;8.4;10.6;2398.8;
172;2016-10-02 04:30:01;10;52;23.1;86;10.6;1008.0;0.3;0.7;NW;1011.2;8.4;10.6;2398.8;
173;2016-10-02 04:40:01;10;52;23.0;86;10.6;1008.0;0.3;0.7;SW;1011.2;8.4;10.6;2398.8;
174;2016-10-02 04:50:01;10;52;23.0;86;10.6;1008.0;0.3;1.0;E;1011.2;8.4;10.6;2398.8;
175;2016-10-02 05:00:01;10;52;23.0;86;10.5;1008.0;0.7;1.0;W;1011.2;8.3;10.5;2398.8;
176;2016-10-02 05:10:01;10;52;23.0;87;10.5;1008.1;0.0;0.7;W;1011.3;8.4;10.5;2398.8;
177;2016-10-02 05:20:01;10;52;22.9;87;10.6;1008.2;0.7;2.0;E;1011.4;8.5;10.6;2398.8;
178;2016-10-02 05:30:01;10;52;23.0;86;10.6;1008.2;0.3;1.0;SE;1011.4;8.4;10.6;2398.8;
179;2016-10-02 05:40:01;10;52;23.0;87;10.5;1008.4;0.0;0.3;SE;1011.6;8.4;10.5;2398.8;
180;2016-10-02 05:50:01;10;52;22.9;87;10.5;1008.5;0.3;1.4;SW;1011.7;8.4;10.5;2398.8;
181;2016-10-02 06:00:01;10;52;22.9;87;10.6;1008.6;0.7;1.0;S;1011.8;8.5;10.6;2398.8;
182;2016-10-02 06:10:01;10;52;22.9;87;10.6;1008.7;0.0;0.3;S;1011.9;8.5;10.6;2398.8;
183;2016-10-02 06:20:01;10;52;22.9;87;10.7;1008.8;0.3;1.0;S;1012.0;8.6;10.7;2398.8;
184;2016-10-02 06:30:01;10;52;22.9;87;10.8;1008.9;0.7;1.0;SSW;1012.1;8.7;10.8;2398.8;
185;2016-10-02 06:40:01;10;52;22.9;86;11.0;1009.1;0.7;1.4;S;1012.3;8.7;11.0;2398.8;
186;2016-10-02 06:50:01;10;52;22.8;86;11.1;1009.2;0.3;0.7;SW;1012.4;8.8;11.1;2398.8;
187;2016-10-02 07:00:01;10;52;22.8;86;11.2;1009.3;0.3;0.7;NW;1012.5;8.9;11.2;2398.8;
188;2016-10-02 07:10:01;10;52;22.8;86;11.4;1009.3;0.0;0.3;SW;1012.5;9.1;11.4;2398.8;
189;2016-10-02 07:20:01;10;52;22.8;85;11.7;1009.3;0.3;0.7;NW;1012.5;9.3;11.7;2398.8;
190;2016-10-02 07:30:01;10;52;22.8;84;12.0;1009.6;0.7;1.4;NW;1012.8;9.4;12.0;2398.8;
191;2016-10-02 07:40:01;10;52;22.8;83;12.4;1009.7;0.7;1.4;W;1012.9;9.6;12.4;2398.8;
192;2016-10-02 07:50:01;10;52;22.8;82;12.7;1009.8;0.7;1.4;SW;1013.0;9.7;12.7;2398.8;
193;2016-10-02 08:00:01;10;52;22.7;82;13.0;1009.9;0.0;0.7;S;1013.1;10.0;13.0;2398.8;
194;2016-10-02 08:10:01;10;52;22.7;82;13.5;1010.1;0.3;1.4;N;1013.3;10.5;13.5;2398.8;
195;2016-10-02 08:20:01;10;52;22.7;80;13.8;1010.0;0.7;1.0;S;1013.2;10.4;13.8;2398.8;
196;2016-10-02 08:30:01;10;52;22.7;79;13.9;1010.2;0.0;0.7;S;1013.4;10.3;13.9;2398.8;
197;2016-10-02 08:40:01;10;52;22.7;78;14.2;1010.3;0.3;0.7;SW;1013.5;10.4;14.2;2398.8;
198;2016-10-02 08:50:01;10;52;22.7;77;14.9;1010.3;0.3;0.7;SE;1013.5;10.9;14.9;2398.8;
199;2016-10-02 09:00:01;10;52;22.7;75;15.0;1010.6;0.3;0.7;W;1013.8;10.6;15.0;2398.8;
200;2016-10-02 09:10:01;10;52;22.7;76;15.9;1010.7;0.3;1.0;SE;1013.9;11.7;15.9;2398.8;
201;2016-10-02 09:20:01;10;53;22.7;66;17.1;1010.7;0.7;2.0;S;1013.9;10.7;17.1;2398.8;
202;2016-10-02 09:30:01;10;53;22.7;65;17.9;1010.9;0.7;1.0;N;1014.1;11.2;17.9;2398.8;
203;2016-10-02 09:40:01;10;53;22.7;63;18.8;1011.0;1.4;2.4;SW;1014.2;11.6;18.8;2398.8;
204;2016-10-02 09:50:01;10;54;22.7;58;19.1;1011.1;0.3;1.0;SE;1014.3;10.6;19.1;2398.8;
205;2016-10-02 10:00:01;10;55;22.7;56;20.3;1011.1;0.3;0.7;N;1014.3;11.2;20.3;2398.8;
206;2016-10-02 10:10:01;10;55;22.7;53;21.6;1011.1;0.0;0.7;S;1014.3;11.6;21.6;2398.8;
207;2016-10-02 10:20:01;10;55;22.7;47;22.0;1011.3;0.7;1.0;NW;1014.5;10.2;22.0;2398.8;
208;2016-10-02 10:30:01;10;55;22.7;48;21.2;1011.3;0.7;1.0;E;1014.5;9.7;21.2;2398.8;
209;2016-10-02 10:40:01;10;55;22.7;54;19.1;1011.6;0.0;0.7;SE;1014.8;9.6;19.1;2398.8;
210;2016-10-02 10:50:01;10;56;22.7;57;18.4;1011.5;0.3;0.7;E;1014.7;9.7;18.4;2398.8;
211;2016-10-02 11:00:01;10;57;22.7;59;17.6;1011.6;0.0;0.3;SE;1014.8;9.5;17.6;2398.8;
212;2016-10-02 11:10:01;10;59;22.8;61;17.9;1011.8;0.3;0.7;NW;1015.0;10.3;17.9;2398.8;
213;2016-10-02 11:20:01;10;61;22.8;59;18.2;1011.9;0.3;0.7;S;1015.1;10.1;18.2;2398.8;
214;2016-10-02 11:30:01;10;61;22.9;59;18.1;1011.9;0.0;0.7;NW;1015.1;10.0;18.1;2398.8;
215;2016-10-02 11:40:01;10;60;22.9;57;18.8;1011.8;0.3;0.7;W;1015.0;10.1;18.8;2398.8;
216;2016-10-02 11:50:01;10;58;22.9;55;19.7;1011.9;0.3;0.7;E;1015.1;10.4;19.7;2398.8;
217;2016-10-02 12:00:01;10;58;23.0;49;20.4;1011.9;0.3;1.4;N;1015.1;9.3;20.4;2398.8;
218;2016-10-02 12:10:01;10;58;23.1;49;20.3;1012.0;0.3;1.0;N;1015.2;9.2;20.3;2398.8;
219;2016-10-02 12:20:01;10;58;23.1;52;19.2;1012.0;0.3;0.7;E;1015.2;9.1;19.2;2398.8;
220;2016-10-02 12:30:01;10;58;23.1;54;18.3;1012.0;0.3;0.7;W;1015.2;8.8;18.3;2398.8;
221;2016-10-02 12:40:01;10;54;23.1;55;18.3;1012.2;0.3;0.7;NW;1015.4;9.1;18.3;2398.8;
222;2016-10-02 12:50:01;10;50;23.1;54;18.6;1012.0;0.0;0.3;ESE;1015.2;9.1;18.6;2398.8;
223;2016-10-02 13:00:01;10;49;23.1;55;18.7;1012.2;0.0;0.3;SE;1015.4;9.5;18.7;2398.8;
224;2016-10-02 13:10:01;10;48;23.1;54;19.4;1012.2;0.3;0.7;W;1015.4;9.8;19.4;2398.8;
225;2016-10-02 13:20:01;10;48;23.0;49;21.3;1012.3;0.7;1.0;W;1015.5;10.1;21.3;2398.8;
226;2016-10-02 13:30:01;10;48;23.0;45;21.4;1012.4;0.7;1.0;SE;1015.6;9.0;21.4;2398.8;
227;2016-10-02 13:40:01;10;47;23.0;45;21.5;1012.1;0.3;1.0;SE;1015.3;9.1;21.5;2398.8;
228;2016-10-02 13:50:01;10;47;23.0;43;22.5;1012.3;0.0;0.3;E;1015.5;9.3;22.5;2398.8;
229;2016-10-02 14:00:01;10;47;23.0;40;23.2;1012.4;0.7;1.0;W;1015.6;8.8;23.2;2398.8;
230;2016-10-02 14:10:01;10;46;22.9;43;21.3;1012.5;0.3;0.7;NW;1015.7;8.2;21.3;2398.8;
231;2016-10-02 14:20:00;10;46;22.9;46;20.1;1012.6;1.0;1.7;W;1015.8;8.1;20.1;2398.8;
232;2016-10-02 14:30:00;10;47;22.9;49;19.4;1012.6;0.7;1.4;NW;1015.8;8.4;19.4;2398.8;
233;2016-10-02 14:40:00;10;47;22.9;52;18.9;1012.8;0.3;0.7;SE;1016.0;8.8;18.9;2398.8;
234;2016-10-02 14:50:01;10;46;22.9;53;18.8;1012.7;0.0;0.0;E;1015.9;9.0;18.8;2398.8;
235;2016-10-02 15:00:01;10;46;22.9;53;18.9;1012.8;0.0;0.0;S;1016.0;9.1;18.9;2398.8;
236;2016-10-02 15:10:01;10;47;22.8;51;19.6;1012.8;0.0;0.3;NE;1016.0;9.2;19.6;2398.8;
237;2016-10-02 15:20:01;10;49;22.8;50;19.8;1012.9;0.3;0.7;S;1016.1;9.1;19.8;2398.8;
238;2016-10-02 15:30:01;10;49;22.8;51;19.5;1013.0;0.0;0.7;E;1016.2;9.1;19.5;2398.8;
239;2016-10-02 15:40:01;10;50;22.8;52;18.9;1013.0;0.3;0.7;E;1016.2;8.8;18.9;2398.8;
240;2016-10-02 15:50:01;10;50;22.8;53;18.4;1013.2;0.7;1.4;SW;1016.4;8.6;18.4;2398.8;
241;2016-10-02 16:00:01;10;50;22.9;55;18.0;1013.3;0.3;1.4;E;1016.5;8.8;18.0;2398.8;
242;2016-10-02 16:10:01;10;49;22.9;55;17.9;1013.5;0.3;0.7;E;1016.7;8.7;17.9;2398.8;
243;2016-10-02 16:20:01;10;49;22.9;57;17.7;1013.6;0.3;0.7;SE;1016.8;9.1;17.7;2398.8;
244;2016-10-02 16:30:01;10;50;22.8;56;17.7;1013.7;0.3;0.7;SE;1016.9;8.8;17.7;2398.8;
245;2016-10-02 16:40:01;10;51;22.8;55;17.6;1013.7;0.3;1.0;E;1016.9;8.4;17.6;2398.8;
246;2016-10-02 16:50:01;10;51;22.9;54;17.2;1013.8;1.4;1.7;SE;1017.0;7.8;17.2;2398.8;
247;2016-10-02 17:00:01;10;51;22.9;56;16.9;1014.0;0.3;0.7;S;1017.2;8.1;16.9;2398.8;
248;2016-10-02 17:10:01;10;51;22.8;57;16.6;1014.2;0.3;0.7;N;1017.4;8.0;16.6;2398.8;
249;2016-10-02 17:20:01;10;51;22.9;58;16.3;1014.4;0.0;0.3;E;1017.6;8.0;16.3;2398.8;
250;2016-10-02 17:30:01;10;51;22.9;60;15.9;1014.7;0.0;0.7;SE;1017.9;8.1;15.9;2398.8;
251;2016-10-02 17:40:01;10;51;22.9;61;15.6;1014.7;0.0;0.0;S;1017.9;8.1;15.6;2398.8;
252;2016-10-02 17:50:01;10;51;22.9;62;15.3;1014.9;0.0;0.0;E;1018.1;8.1;15.3;2398.8;
253;2016-10-02 18:00:01;10;51;22.9;64;14.9;1015.0;0.0;0.7;SW;1018.2;8.1;14.9;2398.8;
254;2016-10-02 18:10:01;10;51;22.9;64;14.6;1015.0;0.0;0.3;S;1018.2;7.9;14.6;2398.8;
255;2016-10-02 18:20:01;10;51;22.9;65;14.3;1015.1;0.3;0.7;S;1018.3;7.8;14.3;2398.8;
256;2016-10-02 18:30:01;10;49;22.9;65;14.3;1015.5;0.0;0.0;SW;1018.7;7.8;14.3;2398.8;
257;2016-10-02 18:40:01;10;51;22.8;66;13.7;1015.5;0.0;0.0;SW;1018.7;7.5;13.7;2398.8;
258;2016-10-02 18:50:01;10;52;22.8;66;13.3;1015.6;0.0;0.0;SW;1018.8;7.1;13.3;2398.8;
259;2016-10-02 19:00:01;10;53;22.9;68;12.9;1015.7;0.0;0.0;SW;1018.9;7.1;12.9;2398.8;
260;2016-10-02 19:10:01;10;54;22.9;69;12.9;1015.9;0.0;0.0;NW;1019.1;7.3;12.9;2398.8;
261;2016-10-02 19:20:01;10;47;22.8;69;12.8;1016.0;0.0;0.3;NW;1019.2;7.3;12.8;2398.8;
262;2016-10-02 19:30:01;10;51;22.7;71;12.6;1016.0;0.0;0.0;NW;1019.2;7.5;12.6;2398.8;
263;2016-10-02 19:40:01;10;51;22.8;71;12.4;1016.2;0.0;0.0;SE;1019.4;7.3;12.4;2398.8;
264;2016-10-02 19:50:01;10;51;22.8;71;12.2;1016.5;0.0;0.0;S;1019.7;7.1;12.2;2398.8;
265;2016-10-02 20:00:01;10;51;22.8;72;11.8;1016.5;0.0;0.0;S;1019.7;6.9;11.8;2398.8;
266;2016-10-02 20:10:01;10;51;22.9;73;11.6;1016.7;0.0;0.0;W;1019.9;6.9;11.6;2398.8;
267;2016-10-02 20:20:01;10;51;22.9;74;11.6;1016.8;0.0;0.0;W;1020.0;7.1;11.6;2398.8;
268;2016-10-02 20:30:01;10;51;23.0;75;11.4;1017.1;0.0;0.0;W;1020.3;7.1;11.4;2398.8;
269;2016-10-02 20:40:01;10;51;23.0;75;11.0;1017.1;0.0;0.0;W;1020.3;6.7;11.0;2398.8;
270;2016-10-02 20:50:01;10;51;23.0;77;10.6;1017.2;0.0;0.0;W;1020.4;6.7;10.6;2398.8;
271;2016-10-02 21:00:01;10;51;23.0;78;10.2;1017.2;0.0;0.0;W;1020.4;6.5;10.2;2398.8;
272;2016-10-02 21:10:01;10;52;23.0;79;10.1;1017.5;0.0;0.0;W;1020.7;6.6;10.1;2398.8;
273;2016-10-02 21:20:01;10;52;23.0;81;10.0;1017.5;0.0;0.0;W;1020.7;6.9;10.0;2398.8;
274;2016-10-02 21:30:01;10;52;23.1;83;9.9;1017.7;0.0;0.0;W;1020.9;7.1;9.9;2398.8;
275;2016-10-02 21:40:01;10;52;23.1;84;9.7;1017.7;0.0;0.0;W;1020.9;7.1;9.7;2398.8;
276;2016-10-02 21:50:01;10;46;23.0;84;9.6;1017.7;0.0;0.0;W;1020.9;7.0;9.6;2398.8;
277;2016-10-02 22:00:01;10;50;22.9;85;9.6;1017.9;0.0;0.0;W;1021.1;7.2;9.6;2398.8;
278;2016-10-02 22:10:01;10;50;22.9;85;9.5;1018.0;0.0;0.0;W;1021.2;7.1;9.5;2398.8;
279;2016-10-02 22:20:01;10;50;22.9;85;9.2;1018.2;0.0;0.0;W;1021.4;6.8;9.2;2398.8;
280;2016-10-02 22:30:01;10;50;22.8;86;9.1;1018.3;0.0;0.0;W;1021.5;6.9;9.1;2398.8;
281;2016-10-02 22:40:01;10;50;22.8;87;9.2;1018.4;0.0;0.0;W;1021.6;7.1;9.2;2398.8;